User: anonymous   Login
Location: Unspecified
(0.0000°N, 0.0000°E)
Time: 20:12:35
(UTC+00:00)
Language:

USA 48 - Orbit

View from above orbital plane
View from above orbital plane
View from above satellite
View from above satellite

Ground track
Ground track

The orbit data is extracted from the following two-line orbital elements,

1 20355U 89090B   20088.85198157 0.00000000  00000-0  00000-0 0    06
2 20355  18.1932   3.6767 0284997  52.3387 310.2253  1.00737683    08
Epoch (UTC): 28 March 2020 20:26:51
Eccentricity: 0.0284997
inclination: 18.1932°
perigee height: 34458 km
apogee height: 36854 km
right ascension of ascending node: 3.6767°
argument of perigee: 52.3387°
revolutions per day: 1.00737683
mean anomaly at epoch: 310.2253°
orbit number at epoch: 0

The dashed part of the orbit path shows where the satellite is in the earth's shadow,  

DLR